• Join FlightAware (Why Join?)
  • Login
  • US Flag GB Flag 
21:48 EDT


 

Airport Tracker/Info


-or-


 

Live Flight TrackerFlight Track Log ✈ AWE3417 ✈ 17-Apr-2013 ✈ KMHT - KDCA

Flight Track Log - Related Links

Times and Time Zones

All times are in EDT time to prevent confusion due to time zone crossing. See the AWE3417 flight status page for this flight to view local times or setup timezone preferences in your user account.

Time Position Orientation Groundspeed Altitude Reporting Facility
EDT Latitude Longitude Course Direction KTS MPH feet Rate Location/Type
17:13 42.9333 -71.4333 202° Southwest 150 173 1,100  Level KA90
17:14 42.9833 -71.4500 346° North 197 227 3,200 2,280 Climbing KA90
17:15 43.0532 -71.0905 65° Northeast  Level FlightAware Approximate
17:16 43.0745 -70.9701 132° Southeast  Level FlightAware Approximate
17:16 43.0300 -71.2728 70° East 267 307 8,600  Level Boston Center
17:17 43.0010 -70.8843 144° Southeast  Level FlightAware Approximate
17:17 43.0497 -71.1700 75° East 292 336 10,800  Level Boston Center
17:18 42.9137 -70.9054 202° Southwest  Level FlightAware Approximate
17:18 43.0753 -71.0303 76° East 329 379 12,700  Level Boston Center
17:19 43.0092 -70.9097 127° Southeast 330 380 15,300 2,040 Climbing Boston Center
17:20 42.9217 -70.9175 184° South 273 314 16,900 1,440 Climbing Boston Center
17:21 42.8139 -70.9656 198° South 330 380 18,200 1,620 Climbing Boston Center
17:22 42.7144 -71.0158 200° South 369 425 20,200 2,100 Climbing Boston Center
17:23 42.6108 -71.0692 201° Southwest 391 450 22,500 1,920 Climbing Boston Center
17:24 42.5114 -71.1164 199° South 391 450 24,100 1,500 Climbing Boston Center
17:25 42.4247 -71.1969 214° Southwest 371 427 25,500 1,320 Climbing Boston Center
17:26 42.3886 -71.3186 248° West 349 402 26,800 1,320 Climbing Boston Center
17:27 42.3503 -71.4428 247° West 354 407 28,200 1,440 Climbing Boston Center
17:28 42.3053 -71.5669 244° Southwest 359 413 29,700 900 Climbing Boston Center
17:29 42.2667 -71.6911 247° West 364 419 30,000 120 Climbing Boston Center
17:30 42.2297 -71.8119 248° West 357 411 30,000  Level Boston Center
17:31 42.1908 -71.9272 246° West 352 405 30,000  Level Boston Center
17:32 42.1539 -72.0397 246° West 346 398 30,000  Level Boston Center
17:33 42.1167 -72.1519 246° West 341 392 30,000  Level Boston Center
17:34 42.0794 -72.2667 246° West 336 387 30,000  Level Boston Center
17:35 42.0439 -72.3814 247° West 336 387 30,000  Level Boston Center
17:36 42.0086 -72.4819 245° Southwest 336 387 30,000  Level Boston Center
17:37 41.9708 -72.5964 246° West 336 387 30,000  Level Boston Center
17:38 41.9228 -72.7164 242° Southwest 336 387 30,000  Level Boston Center
17:39 41.8494 -72.8164 225° Southwest 351 404 30,000  Level Boston Center
17:40 41.7847 -72.9078 226° Southwest 369 425 30,000  Level Boston Center
17:41 41.7092 -73.0072 225° Southwest 376 433 30,000  Level Boston Center
17:42 41.6378 -73.1011 225° Southwest 376 433 30,000  Level Boston Center
17:43 41.5664 -73.1975 225° Southwest 376 433 30,000  Level Boston Center
17:45 41.4047 -73.4183 226° Southwest 373 429 30,000  Level New York Center
17:46 41.3456 -73.5458 238° Southwest 398 458 30,000  Level New York Center
17:47 41.3278 -73.6858 260° West 383 441 30,000  Level New York Center
17:48 41.2931 -73.8225 251° West 388 447 30,000  Level New York Center
17:49 41.2047 -73.9286 222° Southwest 401 461 30,000 -60 Level New York Center
17:50 41.1144 -74.0319 221° Southwest 413 475 29,900 -660 Descending New York Center
17:51 41.0306 -74.1322 222° Southwest 418 481 28,800 -960 Descending New York Center
17:52 40.9403 -74.2267 218° Southwest 418 481 28,000 -420 Descending New York Center
17:53 40.8539 -74.3267 221° Southwest 418 481 28,000  Level New York Center
17:54 40.7736 -74.4292 224° Southwest 413 475 28,000  Level New York Center
17:55 40.7056 -74.5433 232° Southwest 408 470 28,000  Level New York Center
17:56 40.6556 -74.6692 242° Southwest 402 463 28,000 -480 Level New York Center
17:57 40.6056 -74.7947 242° Southwest 395 455 27,100 -960 Descending New York Center
17:58 40.5575 -74.9175 243° Southwest 385 443 26,100 -1,020 Descending New York Center
17:59 40.5117 -75.0375 243° Southwest 380 437 25,100 -1,260 Descending New York Center
18:00 40.4533 -75.1514 236° Southwest 380 437 23,600 -1,620 Descending New York Center
18:01 40.3808 -75.2503 226° Southwest 380 437 22,000 -1,620 Descending New York Center
18:02 40.3144 -75.3467 228° Southwest 380 437 20,400 -1,020 Descending New York Center
18:03 40.2503 -75.4458 230° Southwest 370 426 20,000 -240 Descending New York Center
18:04 40.1733 -75.5439 224° Southwest 377 434 20,000  Level New York Center
18:05 40.0983 -75.6419 225° Southwest 388 447 20,000  Level New York Center
18:06 40.0194 -75.7339 222° Southwest 388 447 20,000  Level New York Center
18:07 39.9425 -75.8286 223° Southwest 388 447 20,000  Level New York Center
18:08 39.8675 -75.9258 225° Southwest 393 452 20,000  Level New York Center
18:09 39.7842 -76.0197 221° Southwest 393 452 20,000 -780 Level New York Center
18:10 39.7069 -76.1086 222° Southwest 393 452 18,500 -1,920 Descending New York Center
18:11 39.6000 -76.2333 222° Southwest 377 434 15,800 -2,040 Descending Potomac TRACON
18:12 39.5333 -76.3167 224° Southwest 356 410 13,900 -1,860 Descending Potomac TRACON
18:13 39.4667 -76.4000 224° Southwest 340 391 12,100 -960 Descending Potomac TRACON
18:14 39.3833 -76.4833 218° Southwest 336 387 12,000 -60 Descending Potomac TRACON
18:15 39.3000 -76.5500 212° Southwest 339 390 12,000 -480 Level Potomac TRACON
18:16 39.2333 -76.6167 218° Southwest 336 387 11,100 -1,020 Descending Potomac TRACON
18:17 39.1667 -76.6833 218° Southwest 298 343 10,000 -600 Descending Potomac TRACON
18:18 39.1000 -76.7500 218° Southwest 288 331 10,000  Level Potomac TRACON
18:19 39.0333 -76.8167 218° Southwest 289 333 10,000 -900 Level Potomac TRACON
18:20 38.9833 -76.8833 226° Southwest 280 322 8,300 -1,980 Descending Potomac TRACON
18:21 38.9167 -76.9333 210° Southwest 271 312 6,100 -1,320 Descending Potomac TRACON
18:22 38.8500 -76.9500 191° South 233 268 5,700 -780 Descending Potomac TRACON
18:23 38.8000 -76.9500 180° South 212 244 4,600 -1,080 Descending Potomac TRACON
18:24 38.7500 -76.9500 180° South 205 236 3,600 -1,020 Descending Potomac TRACON